Location: *
(43.4667°N, 11.6833°E)
Time: 07:18:03
(UTC+00:00)

Cosmos 1892 - Pass Details

Date: 19 July 2019
Orbit: 504 x 526 km, 82.5° (Epoch: 23 August)

Event Time Altitude Azimuth Distance (km) Brightness Sun altitude
Exits shadow 20:13:10 - 195° (SSW) 2,322 5.7 -12.8°
Reaches altitude 10° 20:14:33 10° 197° (SSW) 1,751 5.1 -13.0°
Maximum altitude 20:18:22 65° 280° (W) 576 3.1 -13.5°
Drops below altitude 10° 20:22:11 10° 2° (N) 1,753 6.0 -14.0°
Sets 20:24:20 0° 6° (N) 2,641 7.0 -14.2°
